Overview Statistics Trail Chart Weather Telemetry Raw packets
 

This is the latest recevied weather packets stored in our database for station/object KI6SYE. If no packets are shown the sender has not sent any weather packets the latest 10 day(s).

<< 95 96 97 98 99 100 101 >>
Time Temp. Humidity Pressure Rain* Wind** Luminosity Snow
1787971670 25° C 77% 1009.7 hPa 0 mm - 0 W/m² -
1787971366 25° C 77% 1009.3 hPa 0 mm - 0 W/m² -
1787971061 25° C 78% 1009.6 hPa 0 mm - 0 W/m² -
1787970760 25° C 79% 1009.6 hPa 0 mm - 1 W/m² -
1787970460 25° C 81% 1009.6 hPa 0 mm - 2 W/m² -
1787970154 24.44° C 83% 1009.5 hPa 0 mm - 4 W/m² -
1787969854 24.44° C 84% 1009.5 hPa 0 mm - 6 W/m² -
1787969552 24.44° C 86% 1009.8 hPa 0 mm - 8 W/m² -
1787969246 24.44° C 87% 1009.7 hPa 0 mm - 12 W/m² -
1787968947 25° C 87% 1009.7 hPa 0 mm - 16 W/m² -
1787968646 24.44° C 88% 1009.4 hPa 0 mm - 21 W/m² -
1787968341 25° C 88% 1009.4 hPa 0 mm - 24 W/m² -
1787968036 25° C 88% 1009.5 hPa 0 mm - 31 W/m² -
1787967735 25° C 87% 1009.5 hPa 0 mm - 36 W/m² -
1787967428 25° C 87% 1009.5 hPa 0 mm - 43 W/m² -
1787967128 25° C 87% 1009.8 hPa 0 mm - 38 W/m² -
1787966824 25° C 87% 1009.8 hPa 0 mm - 40 W/m² -
1787966520 25.56° C 86% 1009.7 hPa 0 mm - 45 W/m² -
1787966219 25.56° C 85% 1009.6 hPa 0 mm - 73 W/m² -
1787965914 25.56° C 85% 1009.8 hPa 0 mm - 83 W/m² -
1787965609 25.56° C 84% 1009.8 hPa 0 mm - 64 W/m² -
1787965303 26.11° C 83% 1009.8 hPa 0 mm - 81 W/m² -
1787965002 25.56° C 84% 1009.7 hPa 0 mm - 73 W/m² -
1787964697 26.11° C 83% 1010.1 hPa 0 mm - 121 W/m² -
1787964397 26.11° C 82% 1010 hPa 0 mm - 141 W/m² -

* Rain latest hour (hover to see other rain measurements)
** Current wind speed in m/s (hover to see current wind gust speed)